Weather History for Farmington, MO

Change the Weather History Date:

Friday, March 29, 2013

  Actual Average Record
Temperature  
Mean Temperature 49 °F -  
Max Temperature 57 °F 59 °F 80 °F (2012)
Min Temperature 39 °F 38 °F 28 °F (2006)
Degree Days  
Heating Degree Days 16    
Moisture  
Dew Point 43 °F    
Average Humidity 84    
Maximum Humidity 93    
Minimum Humidity 67    
Precipitation  
Precipitation 0.21 in - - ()
Sea Level Pressure  
Sea Level Pressure 30.22 in    
Wind  
Wind Speed 4 mph (ESE)    
Max Wind Speed 10 mph    
Max Gust Speed -    
Visibility 8 miles    
Events      
Averages and records for this station are not official NWS values.
T = Trace of Precipitation, MM = Missing Value Source: NWS Daily Summary

Daily Weather History Graph

Daily Weather History Graph

Search for Another Location

Airport:

Trip Planner

Search our weather history database for the weather conditions in past years. The results will help you decide how hot, cold, wet, or windy it might be!

Date:

Astronomy

Mar. 29, 2013 Rise Set
Actual Time 6:51 AM CDT 7:22 PM CDT
Civil Twilight 6:24 AM CDT 7:48 PM CDT
Nautical Twilight 5:53 AM CDT 8:19 PM CDT
Astronomical Twilight 5:22 AM CDT 8:51 PM CDT
Moon 10:18 PM CDT (3/29) 8:03 AM CDT (3/29)
Length of Visible Light 13h 23m
Length of Day
12h 30m
Waning Gibbous, 93% of the Moon is Illuminated
Mar 29
Waning Gibbous
Apr 2
Last Quarter
Apr 10
New
Apr 18
First Quarter
Apr 25
Full

Hourly Weather History & Observations

Time (CDT) Temp. Windchill Dew Point Humidity Pressure Visibility Wind Dir Wind Speed Gust Speed Precip Events Conditions
12:15 AM 44.6 °F 40.7 °F 39.2 °F 81% 30.27 in 10.0 mi NNE 6.9 mph - 0.01 in   Overcast
12:35 AM 44.6 °F 41.4 °F 37.4 °F 76% 30.25 in 10.0 mi ESE 5.8 mph - 0.01 in   Mostly Cloudy
12:55 AM 44.6 °F 40.2 °F 37.4 °F 76% 30.24 in 10.0 mi SE 8.1 mph - 0.02 in   Mostly Cloudy
1:15 AM 44.6 °F 42.2 °F 37.4 °F 76% 30.23 in 10.0 mi SE 4.6 mph - N/A   Mostly Cloudy
1:35 AM 46.4 °F 42.4 °F 39.2 °F 76% 30.25 in 10.0 mi ENE 8.1 mph - N/A   Overcast
1:55 AM 44.6 °F 43.1 °F 39.2 °F 81% 30.26 in 10.0 mi NNE 3.5 mph - 0.01 in   Overcast
2:15 AM 44.6 °F 42.2 °F 39.2 °F 81% 30.27 in 10.0 mi NW 4.6 mph - N/A   Overcast
2:35 AM 44.6 °F 40.7 °F 41.0 °F 87% 30.25 in 9.0 mi East 6.9 mph - 0.04 in   Overcast
2:55 AM 44.6 °F - 41.0 °F 87% 30.25 in 7.0 mi Calm Calm - 0.05 in   Overcast
3:15 AM 44.6 °F 41.4 °F 41.0 °F 87% 30.24 in 5.0 mi ESE 5.8 mph - 0.02 in   Overcast
3:35 AM 42.8 °F 39.3 °F 41.0 °F 93% 30.23 in 5.0 mi SE 5.8 mph - 0.03 in   Overcast
3:55 AM 42.8 °F 38.0 °F 39.2 °F 87% 30.22 in 9.0 mi SE 8.1 mph - 0.04 in   Mostly Cloudy
4:15 AM 44.6 °F 41.4 °F 41.0 °F 87% 30.22 in 9.0 mi SSE 5.8 mph - N/A   Mostly Cloudy
4:35 AM 44.6 °F 42.2 °F 39.2 °F 81% 30.22 in 10.0 mi SE 4.6 mph - N/A   Mostly Cloudy
4:55 AM 44.6 °F 40.7 °F 41.0 °F 87% 30.21 in 8.0 mi SSE 6.9 mph - 0.02 in   Overcast
5:15 AM 44.6 °F 41.4 °F 41.0 °F 87% 30.21 in 6.0 mi SSE 5.8 mph - 0.04 in   Overcast
5:35 AM 44.6 °F 39.2 °F 41.0 °F 87% 30.20 in 6.0 mi South 10.4 mph - 0.06 in   Overcast
5:55 AM 44.6 °F 40.7 °F 41.0 °F 87% 30.21 in 8.0 mi SSE 6.9 mph - 0.07 in   Overcast
6:15 AM 44.6 °F 43.1 °F 41.0 °F 87% 30.20 in 7.0 mi East 3.5 mph - N/A   Mostly Cloudy
6:35 AM 44.6 °F 42.2 °F 41.0 °F 87% 30.21 in 7.0 mi East 4.6 mph - N/A   Mostly Cloudy
6:55 AM 44.6 °F - 41.0 °F 87% 30.21 in 5.0 mi Calm Calm - N/A   Overcast
7:15 AM 44.6 °F 43.1 °F 41.0 °F 87% 30.21 in 3.0 mi East 3.5 mph - N/A   Overcast
7:35 AM 44.6 °F 42.2 °F 42.8 °F 93% 30.22 in 3.0 mi East 4.6 mph - N/A   Overcast
7:55 AM 44.6 °F - 42.8 °F 93% 30.24 in 3.0 mi Calm Calm - N/A   Overcast
8:15 AM 44.6 °F 43.1 °F 42.8 °F 93% 30.23 in 3.0 mi East 3.5 mph - N/A   Overcast
8:35 AM 44.6 °F 42.2 °F 42.8 °F 93% 30.23 in 4.0 mi East 4.6 mph - N/A   Overcast
8:55 AM 44.6 °F 43.1 °F 42.8 °F 93% 30.23 in 4.0 mi ESE 3.5 mph - N/A   Overcast
9:15 AM 44.6 °F 43.1 °F 42.8 °F 93% 30.23 in 4.0 mi ESE 3.5 mph - N/A   Overcast
9:35 AM 46.4 °F 45.2 °F 44.6 °F 93% 30.24 in 4.0 mi East 3.5 mph - N/A   Overcast
9:55 AM 46.4 °F - 44.6 °F 93% 30.24 in 4.0 mi Calm Calm - N/A   Overcast
10:15 AM 46.4 °F - 44.6 °F 93% 30.24 in 5.0 mi Calm Calm - N/A   Overcast
10:35 AM 46.4 °F - 44.6 °F 93% 30.24 in 5.0 mi Calm Calm - N/A   Overcast
10:55 AM 48.2 °F - 46.4 °F 93% 30.25 in 7.0 mi South 3.5 mph - N/A   Overcast
11:15 AM 48.2 °F - 46.4 °F 93% 30.25 in 8.0 mi Calm Calm - N/A   Overcast
11:55 AM 48.2 °F - 46.4 °F 93% 30.24 in 10.0 mi Calm Calm - N/A   Overcast
12:15 PM 50.0 °F - 46.4 °F 87% 30.24 in 10.0 mi Calm Calm - N/A   Overcast
12:35 PM 50.0 °F - 46.4 °F 87% 30.24 in 10.0 mi Calm Calm - N/A   Overcast
12:55 PM 51.8 °F - 46.4 °F 82% 30.24 in 10.0 mi Calm Calm - N/A   Overcast
1:15 PM 51.8 °F - 46.4 °F 82% 30.23 in 10.0 mi South 3.5 mph - N/A   Overcast
1:35 PM 51.8 °F - 46.4 °F 82% 30.23 in 10.0 mi Calm Calm - N/A   Overcast
1:55 PM 51.8 °F - 46.4 °F 82% 30.22 in 10.0 mi Calm Calm - N/A   Overcast
2:15 PM 53.6 °F - 46.4 °F 77% 30.22 in 10.0 mi Calm Calm - N/A   Overcast
2:35 PM 53.6 °F - 46.4 °F 77% 30.21 in 10.0 mi Calm Calm - N/A   Overcast
2:55 PM 53.6 °F - 46.4 °F 77% 30.21 in 10.0 mi Calm Calm - N/A   Overcast
3:15 PM 55.4 °F - 46.4 °F 72% 30.21 in 10.0 mi Calm Calm - N/A   Overcast
3:35 PM 55.4 °F - 48.2 °F 77% 30.21 in 10.0 mi Calm Calm - N/A   Mostly Cloudy
3:55 PM 55.4 °F - 46.4 °F 72% 30.20 in 10.0 mi SSE 3.5 mph - N/A   Mostly Cloudy
4:15 PM 55.4 °F - 46.4 °F 72% 30.20 in 10.0 mi ESE 5.8 mph - N/A   Mostly Cloudy
4:35 PM 55.4 °F - 48.2 °F 77% 30.19 in 10.0 mi ESE 6.9 mph - N/A   Mostly Cloudy
4:55 PM 57.2 °F - 46.4 °F 67% 30.19 in 10.0 mi ESE 6.9 mph - N/A   Partly Cloudy
5:15 PM 55.4 °F - 46.4 °F 72% 30.20 in 10.0 mi ESE 8.1 mph - N/A   Scattered Clouds
5:35 PM 55.4 °F - 46.4 °F 72% 30.20 in 10.0 mi ESE 6.9 mph - N/A   Partly Cloudy
5:55 PM 55.4 °F - 46.4 °F 72% 30.20 in 10.0 mi ESE 9.2 mph - N/A   Clear
6:15 PM 55.4 °F - 46.4 °F 72% 30.20 in 10.0 mi SE 5.8 mph - N/A   Clear
6:35 PM 53.6 °F - 44.6 °F 72% 30.21 in 10.0 mi ESE 6.9 mph - N/A   Clear
6:55 PM 53.6 °F - 44.6 °F 72% 30.21 in 10.0 mi ESE 6.9 mph - N/A   Clear
7:15 PM 51.8 °F - 44.6 °F 76% 30.21 in 10.0 mi SE 3.5 mph - N/A   Clear
7:35 PM 51.8 °F - 44.6 °F 76% 30.21 in 10.0 mi ESE 4.6 mph - N/A   Clear
7:55 PM 50.0 °F - 44.6 °F 82% 30.21 in 10.0 mi SE 3.5 mph - N/A   Clear
8:15 PM 48.2 °F - 44.6 °F 87% 30.22 in 10.0 mi SE 3.5 mph - N/A   Clear
8:35 PM 48.2 °F - 44.6 °F 87% 30.22 in 10.0 mi SE 3.5 mph - N/A   Clear
8:55 PM 48.2 °F - 44.6 °F 87% 30.22 in 8.0 mi Calm Calm - N/A   Clear
9:15 PM 48.2 °F - 44.6 °F 87% 30.22 in 8.0 mi Calm Calm - N/A   Clear
9:35 PM 46.4 °F - 42.8 °F 87% 30.22 in 5.0 mi Calm Calm - N/A   Clear
9:55 PM 46.4 °F - 44.6 °F 93% 30.23 in 5.0 mi Calm Calm - N/A   Clear
10:15 PM 44.6 °F - 42.8 °F 93% 30.23 in 3.0 mi Calm Calm - N/A   Clear
10:35 PM 44.6 °F - 42.8 °F 93% 30.23 in 1.0 mi Calm Calm - N/A   Clear
10:55 PM 44.6 °F - 42.8 °F 93% 30.22 in 1.5 mi Calm Calm - N/A   Clear
11:15 PM 42.8 °F - 41.0 °F 93% 30.22 in 2.5 mi Calm Calm - N/A   Clear
11:35 PM 41.0 °F - 39.2 °F 93% 30.22 in 0.2 mi Calm Calm - N/A   Mostly Cloudy
11:55 PM 39.2 °F - 37.4 °F 93% 30.22 in 0.2 mi Calm Calm - N/A   Unknown